Whiting Field Naval Air Station South Airport
KNDZ : now visible

Airfield :











YOU CAN JOIN US ON...

 
LOGIN :

Register | Disclaimer

   EN    FR    IT 

 









Legend :    VFR   Marginal VFR   IFR   Intensive IFR   Very Intensive IFR
Visi :
Ceiling :
>= 8 km
>= 3000ft
5 to 8 km
1000 to 3000 ft
1500m to 5 km
500 to 1000 ft
800 to 1500m
200 to 500 ft
< 800m
< 200 ft
Symbols :   Thunderstorms  Fog  Heavy snow  Heavy precipitations  Wind > 20 kt







- Airport Elevation : 177 ft


KNDZ - Whiting Field Naval Air Station South

CURRENT METAR :
  • 211856Z AUTO 10011G16KT 10SM BKN065 31/17 A3015 RMK AO2 SLP196 T03060167 $

EXPIRED METARs :
  • 211756Z AUTO 10009KT 10SM BKN060 30/17 A3018 RMK AO2 SLP206 T03000167 10306 20200 58015 $
  • 211656Z AUTO 11007G20KT 050V170 10SM BKN050 29/18 A3020 RMK AO2 SLP212 T02940178 $

TAF N/A
No reported NOTAMs for that airfield.



MET'MAP, your aeronautical weather chart ! - Copyright ORBIFLY December 2007 - Disclaimer

ORBIFLY MET'MAP TEAM :

Programming & Development : Alexandra Zaïnal
Concept & Development : Baudouin d'Aumeries
Co-Development & Prog : Marc-Olivier Méhu
Technical & hardware support : Manuel Goepfert

Contact : metmap@orbifly.com




SOURCES & CREDITS :

   NOAA       Earth
Advisory